GSAT0204 (GALILEO 8)

Last updated on Thu Oct 30 2025 00:02:35 GMT+0000 (Coordinated Universal Time)

1 40545U 15017B 25301.18090898 -.00000068 00000+0 00000+0 0 9999 2 40545 56.8634 347.9415 0005933 249.0046 110.9966 1.70475695 28297
UTC large
Height (km)
Speed (km/s)
/
Latitude / Longitude
Inclination (degrees)
Orbital Period (minutes)
Azimuth
Elevation
Range (km)
Doppler Factor

Next 0 passes for location: London (51.5072 / 0.1276)

Sorry there are no passes over London.